| time (UTC) | temp C | wind direction | speed KPH | gust KPH | rain 1hr cm | rain 24hr cm | rain mn cm | humidity % | barometer mb |
| 20260905032940 | 22 | 177 | 0.0 | 1.6 | 0.00 | 0.86 | 0.86 | 99 | 1015.5 |
| 20260905032436 | 22 | 80 | 0.0 | 0.0 | 0.00 | 0.86 | 0.86 | 99 | 1015.5 |
| 20260905031930 | 22 | 159 | 0.0 | 1.6 | 0.00 | 0.86 | 0.86 | 99 | 1015.6 |
| 20260905031426 | 22 | 136 | 0.0 | 1.6 | 0.00 | 0.86 | 0.86 | 99 | 1015.5 |
| 20260905030921 | 22 | 188 | 0.0 | 3.2 | 0.00 | 0.86 | 0.86 | 99 | 1015.3 |
| 20260905030417 | 22 | 90 | 0.0 | 1.6 | 0.00 | 0.86 | 0.86 | 99 | 1015.5 |
| 20260905025916 | 22 | 125 | 0.0 | 1.6 | 0.00 | 0.86 | 0.86 | 99 | 1015.0 |
| 20260905025411 | 22 | 196 | 3.2 | 3.2 | 0.00 | 0.86 | 0.86 | 99 | 1015.3 |
| 20260905024908 | 22 | 50 | 3.2 | 3.2 | 0.00 | 0.86 | 0.86 | 99 | 1015.2 |
| 20260905024402 | 22 | 172 | 0.0 | 1.6 | 0.00 | 0.86 | 0.86 | 99 | 1015.3 |
| 20260905023858 | 22 | 217 | 0.0 | 4.8 | 0.00 | 0.86 | 0.86 | 99 | 1015.3 |
| 20260905023353 | 22 | 147 | 0.0 | 1.6 | 0.00 | 0.86 | 0.86 | 99 | 1015.5 |
| 20260905022852 | 22 | 85 | 0.0 | 1.6 | 0.00 | 0.86 | 0.86 | 99 | 1015.6 |
| 20260905022347 | 22 | 105 | 1.6 | 3.2 | 0.00 | 0.86 | 0.86 | 99 | 1015.6 |
| 20260905021847 | 22 | 174 | 0.0 | 3.2 | 0.00 | 0.86 | 0.86 | 99 | 1015.7 |
| 20260905021343 | 22 | 142 | 1.6 | 3.2 | 0.00 | 0.86 | 0.86 | 99 | 1015.7 |
| 20260905020838 | 22 | 82 | 1.6 | 3.2 | 0.00 | 0.86 | 0.86 | 99 | 1015.5 |
| 20260905020333 | 22 | 43 | 3.2 | 3.2 | 0.00 | 0.86 | 0.86 | 99 | 1015.7 |
| 20260905015832 | 22 | 91 | 0.0 | 1.6 | 0.00 | 0.86 | 0.86 | 99 | 1015.8 |
| 20260905015331 | 22 | 67 | 0.0 | 3.2 | 0.00 | 0.86 | 0.86 | 99 | 1015.5 |
| 20260905014831 | 22 | 159 | 0.0 | 3.2 | 0.00 | 0.86 | 0.86 | 99 | 1015.7 |
| 20260905014326 | 22 | 109 | 0.0 | 1.6 | 0.00 | 0.86 | 0.86 | 99 | 1015.5 |
| 20260905013821 | 22 | 119 | 0.0 | 3.2 | 0.00 | 0.86 | 0.86 | 99 | 1015.2 |
| 20260905013318 | 22 | 78 | 0.0 | 1.6 | 0.00 | 0.86 | 0.86 | 99 | 1015.3 |
| 20260905012813 | 22 | 88 | 0.0 | 1.6 | 0.00 | 0.86 | 0.86 | 99 | 1015.0 |
| 20260905012308 | 22 | 41 | 0.0 | 3.2 | 0.00 | 0.86 | 0.86 | 99 | 1015.1 |
| 20260905011805 | 22 | 92 | 0.0 | 3.2 | 0.00 | 0.86 | 0.86 | 99 | 1014.8 |
| 20260905011301 | 22 | 71 | 0.0 | 1.6 | 0.00 | 0.86 | 0.86 | 98 | 1014.8 |
| 20260905010801 | 22 | 116 | 0.0 | 1.6 | 0.00 | 0.86 | 0.86 | 98 | 1014.8 |
| 20260905010255 | 22 | 124 | 0.0 | 1.6 | 0.00 | 0.86 | 0.86 | 98 | 1014.6 |
| 20260905005752 | 22 | 184 | 3.2 | 3.2 | 0.00 | 0.86 | 0.86 | 98 | 1014.5 |
| 20260905005253 | 22 | 184 | 0.0 | 4.8 | 0.00 | 0.86 | 0.86 | 98 | 1014.6 |
| 20260905004752 | 22 | 138 | 0.0 | 3.2 | 0.00 | 0.86 | 0.86 | 98 | 1014.5 |
| 20260905004247 | 22 | 156 | 0.0 | 3.2 | 0.00 | 0.86 | 0.86 | 98 | 1014.4 |
| 20260905003742 | 22 | 148 | 0.0 | 3.2 | 0.00 | 0.86 | 0.86 | 98 | 1014.3 |
| 20260905003238 | 22 | 174 | 0.0 | 3.2 | 0.00 | 0.86 | 0.86 | 98 | 1014.1 |
| 20260905002733 | 22 | 59 | 1.6 | 3.2 | 0.00 | 0.86 | 0.86 | 98 | 1013.8 |
| 20260905002228 | 22 | 198 | 1.6 | 4.8 | 0.00 | 0.86 | 0.86 | 98 | 1014.4 |
| 20260905001723 | 22 | 224 | 3.2 | 4.8 | 0.00 | 0.86 | 0.86 | 98 | 1014.0 |
| 20260905001222 | 22 | 199 | 1.6 | 4.8 | 0.00 | 0.86 | 0.86 | 98 | 1013.9 |
| 20260905000718 | 22 | 236 | 1.6 | 3.2 | 0.00 | 0.86 | 0.86 | 98 | 1013.6 |
| 20260905000213 | 22 | 76 | 0.0 | 1.6 | 0.00 | 0.86 | 0.86 | 98 | 1013.6 |
| 20260904235708 | 22 | 169 | 3.2 | 4.8 | 0.00 | 0.86 | 0.86 | 98 | 1013.8 |
| 20260904235203 | 22 | 204 | 1.6 | 3.2 | 0.00 | 0.86 | 0.86 | 98 | 1014.0 |
| 20260904234657 | 22 | 205 | 1.6 | 3.2 | 0.00 | 0.86 | 0.86 | 98 | 1014.0 |
| 20260904234153 | 22 | 135 | 4.8 | 4.8 | 0.00 | 0.86 | 0.86 | 98 | 1013.9 |
| 20260904233648 | 22 | 169 | 1.6 | 1.6 | 0.00 | 0.86 | 0.86 | 98 | 1013.5 |
| 20260904233144 | 22 | 51 | 1.6 | 3.2 | 0.00 | 0.86 | 0.86 | 97 | 1014.1 |
| 20260904232641 | 22 | 60 | 3.2 | 3.2 | 0.00 | 0.86 | 0.86 | 97 | 1014.6 |
| 20260904232137 | 22 | 42 | 3.2 | 3.2 | 0.00 | 0.86 | 0.86 | 97 | 1014.8 |
| 20260904231632 | 22 | 37 | 1.6 | 3.2 | 0.05 | 0.86 | 0.86 | 97 | 1014.9 |
| 20260904231127 | 22 | 87 | 3.2 | 3.2 | 0.05 | 0.86 | 0.86 | 97 | 1015.5 |
| 20260904230626 | 22 | 78 | 1.6 | 4.8 | 0.00 | 0.86 | 0.86 | 96 | 1015.9 |
| 20260904230122 | 22 | 207 | 3.2 | 8.0 | 0.13 | 0.86 | 0.86 | 95 | 1016.0 |
| 20260904225619 | 22 | 68 | 0.0 | 1.6 | 0.79 | 0.86 | 0.86 | 94 | 1015.3 |
| 20260904225114 | 23 | 44 | 1.6 | 4.8 | 0.79 | 0.84 | 0.84 | 94 | 1015.2 |
| 20260904224609 | 23 | 179 | 0.0 | 4.8 | 0.05 | 0.71 | 0.71 | 95 | 1015.0 |
| 20260904224104 | 23 | 193 | 4.8 | 4.8 | 0.00 | 0.71 | 0.71 | 95 | 1015.2 |
| 20260904223603 | 23 | 121 | 1.6 | 4.8 | 0.00 | 0.71 | 0.71 | 94 | 1015.5 |
| 20260904223059 | 23 | 48 | 0.0 | 4.8 | 0.00 | 0.71 | 0.71 | 94 | 1015.5 |
| 20260904222554 | 23 | 88 | 4.8 | 9.7 | 0.00 | 0.71 | 0.71 | 96 | 1015.8 |
| 20260904222050 | 23 | 228 | 3.2 | 4.8 | 0.00 | 0.71 | 0.71 | 96 | 1016.0 |
| 20260904221549 | 23 | 172 | 4.8 | 6.4 | 0.00 | 0.71 | 0.71 | 96 | 1016.0 |
| 20260904221044 | 23 | 177 | 0.0 | 1.6 | 0.00 | 0.71 | 0.71 | 95 | 1015.8 |
| 20260904220544 | 23 | 186 | 1.6 | 4.8 | 0.00 | 0.71 | 0.71 | 95 | 1016.1 |
| 20260904220040 | 23 | 154 | 3.2 | 4.8 | 0.36 | 0.71 | 0.71 | 94 | 1015.7 |
| 20260904215540 | 23 | 182 | 3.2 | 4.8 | 3.00 | 0.69 | 0.69 | 93 | 1016.0 |
| 20260904215036 | 23 | 279 | 4.8 | 4.8 | 3.25 | 0.56 | 0.56 | 89 | 1015.8 |
| 20260904214531 | 25 | 148 | 1.6 | 8.0 | 0.71 | 0.13 | 0.13 | 81 | 1015.9 |
| 20260904214027 | 26 | 158 | 11.3 | 14.5 | 0.00 | 0.00 | 0.00 | 71 | 1015.4 |
| 20260904213524 | 26 | 178 | 6.4 | 20.9 | 0.00 | 0.00 | 0.00 | 68 | 1014.6 |
| 20260904213022 | 27 | 306 | 8.0 | 37.0 | 0.00 | 0.00 | 0.00 | 67 | 1014.6 |
| 20260904212521 | 28 | 267 | 11.3 | 22.5 | 0.00 | 0.00 | 0.00 | 64 | 1014.2 |
| 20260904212016 | 29 | 280 | 8.0 | 19.3 | 0.00 | 0.00 | 0.00 | 64 | 1014.5 |
| 20260904211516 | 31 | 254 | 12.9 | 25.7 | 0.00 | 0.00 | 0.00 | 61 | 1014.3 |
| 20260904211012 | 33 | 228 | 6.4 | 11.3 | 0.00 | 0.00 | 0.00 | 64 | 1014.3 |
| 20260904210511 | 33 | 237 | 3.2 | 4.8 | 0.00 | 0.00 | 0.00 | 63 | 1013.3 |
| 20260904210007 | 33 | 254 | 0.0 | 1.6 | 0.00 | 0.00 | 0.00 | 61 | 1013.1 |
| 20260904205502 | 33 | 258 | 3.2 | 3.2 | 0.00 | 0.00 | 0.00 | 61 | 1013.5 |
| 20260904204959 | 33 | 253 | 0.0 | 0.0 | 0.00 | 0.00 | 0.00 | 58 | 1013.4 |
| 20260904204454 | 33 | 272 | 0.0 | 0.0 | 0.00 | 0.00 | 0.00 | 58 | 1013.3 |
| 20260904203950 | 33 | 285 | 0.0 | 3.2 | 0.00 | 0.00 | 0.00 | 56 | 1013.1 |
| 20260904203446 | 33 | 312 | 0.0 | 1.6 | 0.00 | 0.00 | 0.00 | 60 | 1013.0 |
| 20260904202942 | 33 | 321 | 0.0 | 3.2 | 0.00 | 0.00 | 0.00 | 60 | 1013.1 |
| 20260904202438 | 33 | 229 | 1.6 | 1.6 | 0.00 | 0.00 | 0.00 | 61 | 1013.0 |
| 20260904201934 | 32 | 323 | 0.0 | 0.0 | 0.00 | 0.00 | 0.00 | 62 | 1012.9 |
| 20260904201429 | 32 | 261 | 0.0 | 1.6 | 0.00 | 0.00 | 0.00 | 62 | 1013.0 |
| 20260904200924 | 33 | 150 | 0.0 | 1.6 | 0.00 | 0.00 | 0.00 | 61 | 1013.0 |
| 20260904200422 | 33 | 171 | 0.0 | 0.0 | 0.00 | 0.00 | 0.00 | 59 | 1013.2 |
| 20260904195918 | 33 | 272 | 0.0 | 1.6 | 0.00 | 0.00 | 0.00 | 57 | 1013.4 |
| 20260904195415 | 33 | 260 | 0.0 | 1.6 | 0.00 | 0.00 | 0.00 | 58 | 1013.5 |
| 20260904194910 | 33 | 247 | 0.0 | 1.6 | 0.00 | 0.00 | 0.00 | 58 | 1013.6 |
| 20260904194410 | 34 | 229 | 0.0 | 1.6 | 0.00 | 0.00 | 0.00 | 56 | 1013.8 |
| 20260904193905 | 35 | 254 | 0.0 | 1.6 | 0.00 | 0.00 | 0.00 | 55 | 1013.8 |
| 20260904193400 | 35 | 230 | 3.2 | 3.2 | 0.00 | 0.00 | 0.00 | 53 | 1013.6 |
| 20260904192855 | 35 | 330 | 3.2 | 3.2 | 0.00 | 0.00 | 0.00 | 50 | 1013.6 |
| 20260904192351 | 36 | 2 | 3.2 | 3.2 | 0.00 | 0.00 | 0.00 | 48 | 1013.7 |
| 20260904191847 | 36 | 239 | 1.6 | 8.0 | 0.00 | 0.00 | 0.00 | 47 | 1013.8 |
| 20260904191344 | 37 | 258 | 4.8 | 6.4 | 0.00 | 0.00 | 0.00 | 48 | 1013.8 |
| 20260904190840 | 36 | 245 | 3.2 | 6.4 | 0.00 | 0.00 | 0.00 | 49 | 1014.1 |
| 20260904190335 | 36 | 305 | 1.6 | 4.8 | 0.00 | 0.00 | 0.00 | 49 | 1013.9 |
| 20260904185832 | 36 | 163 | 6.4 | 6.4 | 0.00 | 0.00 | 0.00 | 49 | 1014.0 |
| 20260904185327 | 36 | 263 | 3.2 | 4.8 | 0.00 | 0.00 | 0.00 | 48 | 1014.3 |
| 20260904184826 | 35 | 262 | 3.2 | 4.8 | 0.00 | 0.00 | 0.00 | 50 | 1014.5 |
| 20260904184321 | 35 | 332 | 3.2 | 3.2 | 0.00 | 0.00 | 0.00 | 51 | 1014.6 |
| 20260904183817 | 35 | 283 | 1.6 | 3.2 | 0.00 | 0.00 | 0.00 | 51 | 1014.6 |
| 20260904183312 | 36 | 128 | 1.6 | 6.4 | 0.00 | 0.00 | 0.00 | 51 | 1014.7 |
| 20260904182807 | 36 | 167 | 1.6 | 4.8 | 0.00 | 0.00 | 0.00 | 50 | 1014.9 |
| 20260904182306 | 36 | 350 | 1.6 | 4.8 | 0.00 | 0.00 | 0.00 | 50 | 1014.8 |
| 20260904181758 | 35 | 244 | 3.2 | 9.7 | 0.00 | 0.00 | 0.00 | 52 | 1014.9 |
| 20260904181257 | 35 | 228 | 4.8 | 8.0 | 0.00 | 0.00 | 0.00 | 52 | 1014.9 |
| 20260904180753 | 35 | 211 | 8.0 | 9.7 | 0.00 | 0.00 | 0.00 | 52 | 1015.0 |
| 20260904180248 | 35 | 271 | 3.2 | 9.7 | 0.00 | 0.00 | 0.00 | 53 | 1015.1 |
| 20260904175747 | 35 | 211 | 6.4 | 8.0 | 0.00 | 0.00 | 0.00 | 53 | 1015.1 |
| 20260904175245 | 35 | 252 | 3.2 | 4.8 | 0.00 | 0.00 | 0.00 | 53 | 1015.2 |
| 20260904174741 | 35 | 199 | 3.2 | 6.4 | 0.00 | 0.00 | 0.00 | 52 | 1015.6 |
| 20260904174237 | 35 | 256 | 4.8 | 12.9 | 0.00 | 0.00 | 0.00 | 52 | 1015.4 |
| 20260904173733 | 35 | 225 | 1.6 | 9.7 | 0.00 | 0.00 | 0.00 | 52 | 1015.6 |
| 20260904173232 | 35 | 178 | 3.2 | 8.0 | 0.00 | 0.00 | 0.00 | 50 | 1015.6 |
| 20260904172729 | 35 | 238 | 4.8 | 8.0 | 0.00 | 0.00 | 0.00 | 50 | 1015.7 |
| 20260904172227 | 35 | 195 | 3.2 | 6.4 | 0.00 | 0.00 | 0.00 | 52 | 1015.8 |
| 20260904171717 | 34 | 298 | 6.4 | 8.0 | 0.00 | 0.00 | 0.00 | 51 | 1015.7 |
| 20260904171212 | 34 | 272 | 0.0 | 6.4 | 0.00 | 0.00 | 0.00 | 53 | 1015.7 |
| 20260904170709 | 34 | 234 | 3.2 | 4.8 | 0.00 | 0.00 | 0.00 | 54 | 1015.5 |
| 20260904170204 | 34 | 123 | 3.2 | 4.8 | 0.00 | 0.00 | 0.00 | 53 | 1015.7 |
| 20260904165703 | 34 | 230 | 4.8 | 4.8 | 0.00 | 0.00 | 0.00 | 53 | 1015.8 |
| 20260904165203 | 34 | 222 | 4.8 | 6.4 | 0.00 | 0.00 | 0.00 | 54 | 1015.7 |
| 20260904164657 | 33 | 129 | 3.2 | 4.8 | 0.00 | 0.00 | 0.00 | 54 | 1015.8 |
| 20260904164152 | 33 | 295 | 0.0 | 3.2 | 0.00 | 0.00 | 0.00 | 56 | 1015.6 |
| 20260904163649 | 33 | 210 | 4.8 | 6.4 | 0.00 | 0.00 | 0.00 | 53 | 1015.7 |
| 20260904163144 | 33 | 265 | 0.0 | 4.8 | 0.00 | 0.00 | 0.00 | 56 | 1015.7 |
| 20260904162643 | 33 | 169 | 3.2 | 6.4 | 0.00 | 0.00 | 0.00 | 56 | 1015.9 |
| 20260904162138 | 33 | 196 | 4.8 | 8.0 | 0.00 | 0.00 | 0.00 | 55 | 1015.9 |
| 20260904161633 | 33 | 255 | 1.6 | 6.4 | 0.00 | 0.00 | 0.00 | 55 | 1016.0 |
| 20260904161128 | 33 | 237 | 0.0 | 4.8 | 0.00 | 0.00 | 0.00 | 58 | 1015.8 |
| 20260904160624 | 33 | 254 | 0.0 | 4.8 | 0.00 | 0.00 | 0.00 | 57 | 1016.1 |
| 20260904160119 | 33 | 247 | 4.8 | 9.7 | 0.00 | 0.00 | 0.00 | 56 | 1016.2 |
| 20260904155614 | 33 | 201 | 3.2 | 4.8 | 0.00 | 0.00 | 0.00 | 58 | 1016.3 |
| 20260904155108 | 33 | 178 | 6.4 | 9.7 | 0.00 | 0.00 | 0.00 | 58 | 1016.3 |
| 20260904154601 | 33 | 287 | 0.0 | 6.4 | 0.00 | 0.00 | 0.00 | 58 | 1016.2 |
| 20260904154056 | 33 | 247 | 3.2 | 8.0 | 0.00 | 0.00 | 0.00 | 58 | 1016.3 |
| 20260904153555 | 32 | 221 | 3.2 | 6.4 | 0.00 | 0.00 | 0.00 | 59 | 1016.2 |
| 20260904153053 | 32 | 161 | 4.8 | 6.4 | 0.00 | 0.00 | 0.00 | 59 | 1016.2 |
| 20260904152548 | 32 | 111 | 3.2 | 4.8 | 0.00 | 0.00 | 0.00 | 61 | 1016.3 |
| 20260904152043 | 32 | 122 | 4.8 | 6.4 | 0.00 | 0.00 | 0.00 | 60 | 1016.1 |
| 20260904151538 | 32 | 236 | 0.0 | 1.6 | 0.00 | 0.00 | 0.00 | 63 | 1016.2 |
| 20260904151037 | 32 | 250 | 0.0 | 4.8 | 0.00 | 0.00 | 0.00 | 61 | 1016.0 |
| 20260904150532 | 32 | 260 | 0.0 | 3.2 | 0.00 | 0.00 | 0.00 | 63 | 1016.2 |
| 20260904150027 | 32 | 160 | 0.0 | 3.2 | 0.00 | 0.00 | 0.00 | 63 | 1016.1 |
| 20260904145527 | 32 | 12 | 0.0 | 3.2 | 0.00 | 0.00 | 0.00 | 64 | 1016.3 |
| 20260904145022 | 32 | 187 | 1.6 | 6.4 | 0.00 | 0.00 | 0.00 | 65 | 1016.2 |
| 20260904144518 | 31 | 231 | 1.6 | 6.4 | 0.00 | 0.00 | 0.00 | 64 | 1016.1 |
| 20260904144014 | 31 | 210 | 1.6 | 4.8 | 0.00 | 0.00 | 0.00 | 64 | 1015.9 |
| 20260904143509 | 31 | 184 | 0.0 | 11.3 | 0.00 | 0.00 | 0.00 | 64 | 1016.1 |
| 20260904143006 | 31 | 264 | 6.4 | 8.0 | 0.00 | 0.00 | 0.00 | 64 | 1016.1 |
| 20260904142502 | 31 | 169 | 1.6 | 4.8 | 0.00 | 0.00 | 0.00 | 63 | 1016.2 |
| 20260904142002 | 31 | 151 | 3.2 | 4.8 | 0.00 | 0.00 | 0.00 | 66 | 1016.1 |
| 20260904141456 | 31 | 228 | 1.6 | 4.8 | 0.00 | 0.00 | 0.00 | 67 | 1015.9 |
| 20260904140953 | 31 | 119 | 0.0 | 1.6 | 0.00 | 0.00 | 0.00 | 68 | 1016.1 |
| 20260904140452 | 31 | 109 | 0.0 | 4.8 | 0.00 | 0.00 | 0.00 | 69 | 1016.1 |
| 20260904135951 | 30 | 166 | 3.2 | 3.2 | 0.00 | 0.00 | 0.00 | 70 | 1016.3 |
| 20260904135446 | 30 | 163 | 0.0 | 3.2 | 0.00 | 0.00 | 0.00 | 72 | 1016.4 |
| 20260904134943 | 29 | 230 | 3.2 | 4.8 | 0.00 | 0.00 | 0.00 | 74 | 1016.1 |
| 20260904134442 | 28 | 247 | 1.6 | 4.8 | 0.00 | 0.00 | 0.00 | 74 | 1016.2 |
| 20260904133937 | 28 | 232 | 3.2 | 4.8 | 0.00 | 0.00 | 0.00 | 76 | 1016.1 |
| 20260904133432 | 28 | 243 | 4.8 | 4.8 | 0.00 | 0.00 | 0.00 | 78 | 1016.0 |
| 20260904132928 | 28 | 262 | 3.2 | 3.2 | 0.00 | 0.00 | 0.00 | 78 | 1015.7 |
| 20260904132423 | 28 | 146 | 3.2 | 3.2 | 0.00 | 0.00 | 0.00 | 79 | 1015.6 |
| 20260904131922 | 27 | 206 | 0.0 | 1.6 | 0.00 | 0.00 | 0.00 | 80 | 1015.9 |
| 20260904131417 | 27 | 163 | 1.6 | 3.2 | 0.00 | 0.00 | 0.00 | 80 | 1016.1 |
| 20260904130913 | 27 | 167 | 1.6 | 6.4 | 0.00 | 0.00 | 0.00 | 82 | 1015.9 |
| 20260904130412 | 27 | 165 | 0.0 | 3.2 | 0.00 | 0.00 | 0.00 | 83 | 1015.9 |
| 20260904125907 | 26 | 147 | 3.2 | 4.8 | 0.00 | 0.00 | 0.00 | 84 | 1016.0 |
| 20260904125404 | 26 | 197 | 0.0 | 1.6 | 0.00 | 0.00 | 0.00 | 85 | 1015.7 |
| 20260904124903 | 26 | 140 | 0.0 | 3.2 | 0.00 | 0.00 | 0.00 | 85 | 1015.8 |
| 20260904124359 | 26 | 187 | 0.0 | 3.2 | 0.00 | 0.00 | 0.00 | 87 | 1015.8 |
| 20260904123854 | 26 | 155 | 1.6 | 3.2 | 0.00 | 0.00 | 0.00 | 88 | 1016.2 |
| 20260904123349 | 25 | 60 | 0.0 | 4.8 | 0.00 | 0.00 | 0.00 | 90 | 1015.9 |
| 20260904122845 | 25 | 154 | 0.0 | 1.6 | 0.00 | 0.00 | 0.00 | 91 | 1015.6 |
| 20260904122344 | 25 | 286 | 0.0 | 3.2 | 0.00 | 0.00 | 0.00 | 91 | 1015.8 |
| 20260904121839 | 25 | 68 | 0.0 | 3.2 | 0.00 | 0.00 | 0.00 | 91 | 1016.2 |
| 20260904121336 | 25 | 159 | 0.0 | 1.6 | 0.00 | 0.00 | 0.00 | 92 | 1016.3 |
| 20260904120832 | 24 | 189 | 0.0 | 4.8 | 0.00 | 0.00 | 0.00 | 95 | 1016.2 |
| 20260904120327 | 23 | 244 | 0.0 | 1.6 | 0.00 | 0.00 | 0.00 | 96 | 1016.2 |
| 20260904115822 | 23 | 154 | 0.0 | 0.0 | 0.00 | 0.00 | 0.00 | 97 | 1016.0 |
| 20260904115317 | 23 | 175 | 0.0 | 1.6 | 0.00 | 0.00 | 0.00 | 97 | 1016.0 |
| 20260904114818 | 23 | 110 | 0.0 | 3.2 | 0.00 | 0.00 | 0.00 | 97 | 1015.8 |
| 20260904114312 | 23 | 175 | 1.6 | 1.6 | 0.00 | 0.00 | 0.00 | 97 | 1015.9 |
| 20260904113807 | 23 | 67 | 0.0 | 0.0 | 0.00 | 0.00 | 0.00 | 98 | 1016.0 |
| 20260904113306 | 23 | 272 | 0.0 | 0.0 | 0.00 | 0.00 | 0.00 | 98 | 1015.6 |
| 20260904112801 | 23 | 154 | 0.0 | 0.0 | 0.00 | 0.00 | 0.00 | 98 | 1015.9 |
| 20260904112257 | 23 | 119 | 0.0 | 3.2 | 0.00 | 0.00 | 0.00 | 98 | 1016.1 |
| 20260904111752 | 23 | 242 | 0.0 | 0.0 | 0.00 | 0.00 | 0.00 | 98 | 1015.9 |
| 20260904111248 | 22 | 147 | 0.0 | 1.6 | 0.00 | 0.00 | 0.00 | 98 | 1016.0 |
| 20260904110744 | 22 | 24 | 0.0 | 1.6 | 0.00 | 0.00 | 0.00 | 98 | 1015.9 |
| 20260904110243 | 22 | 72 | 1.6 | 3.2 | 0.00 | 0.00 | 0.00 | 97 | 1015.9 |
| 20260904105738 | 22 | 147 | 0.0 | 1.6 | 0.00 | 0.00 | 0.00 | 97 | 1016.0 |
| 20260904105232 | 22 | 79 | 1.6 | 3.2 | 0.00 | 0.00 | 0.00 | 97 | 1015.9 |
| 20260904104728 | 22 | 128 | 3.2 | 3.2 | 0.00 | 0.00 | 0.00 | 97 | 1015.8 |
| 20260904104223 | 22 | 184 | 1.6 | 3.2 | 0.00 | 0.00 | 0.00 | 97 | 1015.7 |
| 20260904103720 | 22 | 151 | 1.6 | 3.2 | 0.00 | 0.00 | 0.00 | 97 | 1015.8 |
| 20260904103215 | 23 | 153 | 1.6 | 3.2 | 0.00 | 0.00 | 0.00 | 97 | 1015.7 |
| 20260904102711 | 23 | 161 | 1.6 | 3.2 | 0.00 | 0.00 | 0.00 | 97 | 1016.0 |
| 20260904102206 | 23 | 173 | 1.6 | 3.2 | 0.00 | 0.00 | 0.00 | 97 | 1015.7 |
| 20260904101702 | 23 | 153 | 0.0 | 3.2 | 0.00 | 0.00 | 0.00 | 97 | 1015.7 |
| 20260904101158 | 23 | 149 | 0.0 | 1.6 | 0.00 | 0.00 | 0.00 | 97 | 1015.7 |
| 20260904100654 | 23 | 172 | 0.0 | 0.0 | 0.00 | 0.00 | 0.00 | 96 | 1015.8 |
| 20260904100149 | 23 | 179 | 1.6 | 3.2 | 0.00 | 0.00 | 0.00 | 96 | 1015.7 |
| 20260904095649 | 23 | 155 | 1.6 | 1.6 | 0.00 | 0.00 | 0.00 | 96 | 1015.8 |
| 20260904095149 | 23 | 143 | 0.0 | 0.0 | 0.00 | 0.00 | 0.00 | 96 | 1015.9 |
| 20260904094644 | 23 | 143 | 0.0 | 0.0 | 0.00 | 0.00 | 0.00 | 96 | 1015.7 |
| 20260904094139 | 23 | 143 | 0.0 | 1.6 | 0.00 | 0.00 | 0.00 | 96 | 1015.8 |
| 20260904093636 | 23 | 153 | 1.6 | 3.2 | 0.00 | 0.00 | 0.00 | 96 | 1015.8 |
| 20260904093135 | 23 | 158 | 1.6 | 3.2 | 0.00 | 0.00 | 0.00 | 96 | 1015.9 |
| 20260904092632 | 23 | 148 | 0.0 | 3.2 | 0.00 | 0.00 | 0.00 | 95 | 1016.0 |
| 20260904092127 | 23 | 142 | 1.6 | 1.6 | 0.00 | 0.00 | 0.00 | 95 | 1016.0 |
| 20260904091623 | 23 | 154 | 0.0 | 1.6 | 0.00 | 0.00 | 0.00 | 95 | 1016.0 |
| 20260904091123 | 23 | 130 | 3.2 | 3.2 | 0.00 | 0.00 | 0.00 | 95 | 1016.1 |
| 20260904090618 | 23 | 146 | 0.0 | 1.6 | 0.00 | 0.00 | 0.00 | 94 | 1016.0 |
| 20260904090114 | 23 | 149 | 1.6 | 3.2 | 0.00 | 0.00 | 0.00 | 94 | 1016.0 |
| 20260904085609 | 23 | 176 | 0.0 | 3.2 | 0.00 | 0.00 | 0.00 | 94 | 1016.0 |
| 20260904085108 | 24 | 209 | 0.0 | 3.2 | 0.00 | 0.00 | 0.00 | 94 | 1016.2 |
| 20260904084604 | 24 | 227 | 1.6 | 1.6 | 0.00 | 0.00 | 0.00 | 94 | 1016.1 |
| 20260904084100 | 24 | 242 | 1.6 | 1.6 | 0.00 | 0.00 | 0.00 | 93 | 1016.1 |
| 20260904083556 | 24 | 159 | 0.0 | 1.6 | 0.00 | 0.00 | 0.00 | 93 | 1015.9 |
| 20260904083052 | 24 | 159 | 3.2 | 3.2 | 0.00 | 0.00 | 0.00 | 93 | 1015.8 |
| 20260904082547 | 24 | 148 | 0.0 | 1.6 | 0.00 | 0.00 | 0.00 | 93 | 1015.8 |
| 20260904082042 | 24 | 159 | 0.0 | 0.0 | 0.00 | 0.00 | 0.00 | 93 | 1015.9 |
| 20260904081537 | 24 | 153 | 0.0 | 3.2 | 0.00 | 0.00 | 0.00 | 92 | 1015.7 |
| 20260904081032 | 25 | 85 | 0.0 | 0.0 | 0.00 | 0.00 | 0.00 | 92 | 1015.4 |
| 20260904080528 | 25 | 121 | 3.2 | 3.2 | 0.00 | 0.00 | 0.00 | 91 | 1015.4 |
| 20260904080024 | 25 | 247 | 1.6 | 1.6 | 0.00 | 0.00 | 0.00 | 91 | 1015.6 |
| 20260904075520 | 25 | 92 | 0.0 | 0.0 | 0.00 | 0.00 | 0.00 | 91 | 1015.9 |
| 20260904075015 | 25 | 143 | 1.6 | 3.2 | 0.00 | 0.00 | 0.00 | 89 | 1015.7 |
| 20260904074514 | 25 | 217 | 0.0 | 1.6 | 0.00 | 0.00 | 0.00 | 89 | 1015.6 |
| 20260904074009 | 25 | 186 | 0.0 | 1.6 | 0.00 | 0.00 | 0.00 | 89 | 1015.7 |
| 20260904073504 | 25 | 193 | 3.2 | 4.8 | 0.00 | 0.00 | 0.00 | 90 | 1015.5 |
| 20260904073001 | 25 | 5 | 3.2 | 3.2 | 0.00 | 0.00 | 0.00 | 91 | 1015.3 |
| 20260904072456 | 25 | 131 | 1.6 | 3.2 | 0.00 | 0.00 | 0.00 | 90 | 1015.4 |
| 20260904071956 | 25 | 163 | 0.0 | 1.6 | 0.00 | 0.00 | 0.00 | 90 | 1015.4 |
| 20260904071451 | 25 | 132 | 0.0 | 1.6 | 0.00 | 0.00 | 0.00 | 88 | 1015.3 |
| 20260904070946 | 25 | 143 | 0.0 | 3.2 | 0.00 | 0.00 | 0.00 | 85 | 1015.4 |
| 20260904070444 | 26 | 159 | 0.0 | 0.0 | 0.00 | 0.00 | 0.00 | 86 | 1015.4 |
| 20260904065939 | 26 | 180 | 1.6 | 3.2 | 0.00 | 0.00 | 0.00 | 84 | 1015.3 |
| 20260904065435 | 26 | 158 | 3.2 | 3.2 | 0.00 | 0.00 | 0.00 | 83 | 1015.2 |
| 20260904064930 | 26 | 184 | 0.0 | 0.0 | 0.00 | 0.00 | 0.00 | 83 | 1015.5 |
| 20260904064427 | 26 | 200 | 3.2 | 3.2 | 0.00 | 0.00 | 0.00 | 82 | 1015.5 |
| 20260904063921 | 27 | 119 | 0.0 | 1.6 | 0.00 | 0.00 | 0.00 | 83 | 1015.5 |
| 20260904063418 | 27 | 145 | 0.0 | 3.2 | 0.00 | 0.00 | 0.00 | 78 | 1015.5 |
| 20260904062913 | 26 | 259 | 3.2 | 6.4 | 0.00 | 0.00 | 0.00 | 84 | 1015.7 |
| 20260904062409 | 26 | 147 | 0.0 | 1.6 | 0.00 | 0.00 | 0.00 | 84 | 1015.5 |
| 20260904061905 | 27 | 172 | 0.0 | 1.6 | 0.00 | 0.00 | 0.00 | 84 | 1015.8 |
| 20260904061401 | 27 | 247 | 1.6 | 8.0 | 0.00 | 0.00 | 0.00 | 81 | 1016.0 |
| 20260904060857 | 27 | 165 | 0.0 | 4.8 | 0.00 | 0.00 | 0.00 | 83 | 1016.2 |
| 20260904060352 | 27 | 252 | 1.6 | 8.0 | 0.00 | 0.00 | 0.00 | 84 | 1016.4 |
| 20260904055848 | 27 | 225 | 3.2 | 6.4 | 0.00 | 0.00 | 0.00 | 85 | 1016.2 |
| 20260904055342 | 27 | 239 | 0.0 | 4.8 | 0.00 | 0.00 | 0.00 | 85 | 1016.3 |
| 20260904054838 | 26 | 158 | 6.4 | 9.7 | 0.00 | 0.00 | 0.00 | 87 | 1016.8 |
| 20260904054334 | 26 | 225 | 0.0 | 1.6 | 0.00 | 0.00 | 0.00 | 87 | 1015.4 |
| 20260904053829 | 26 | 132 | 0.0 | 0.0 | 0.00 | 0.00 | 0.00 | 88 | 1015.9 |
| 20260904053329 | 26 | 184 | 0.0 | 3.2 | 0.00 | 0.00 | 0.00 | 89 | 1015.5 |
| 20260904052825 | 26 | 80 | 0.0 | 0.0 | 0.00 | 0.00 | 0.00 | 91 | 1015.8 |
| 20260904052321 | 26 | 147 | 0.0 | 0.0 | 0.00 | 0.00 | 0.00 | 90 | 1015.6 |
| 20260904051817 | 26 | 154 | 0.0 | 0.0 | 0.00 | 0.00 | 0.00 | 90 | 1015.7 |
| 20260904051313 | 26 | 172 | 0.0 | 1.6 | 0.00 | 0.00 | 0.00 | 89 | 1015.8 |
| 20260904050807 | 26 | 143 | 0.0 | 1.6 | 0.00 | 0.00 | 0.00 | 88 | 1015.6 |
| 20260904050305 | 26 | 140 | 0.0 | 1.6 | 0.00 | 0.00 | 0.00 | 89 | 1015.9 |
| 20260904045804 | 26 | 134 | 0.0 | 1.6 | 0.00 | 0.00 | 0.00 | 91 | 1015.9 |
| 20260904045259 | 26 | 155 | 0.0 | 1.6 | 0.00 | 0.00 | 0.00 | 91 | 1016.1 |
| 20260904044754 | 26 | 173 | 1.6 | 3.2 | 0.00 | 0.00 | 0.00 | 92 | 1016.0 |
| 20260904044251 | 26 | 177 | 1.6 | 3.2 | 0.00 | 0.00 | 0.00 | 93 | 1015.9 |
| 20260904043746 | 26 | 172 | 0.0 | 1.6 | 0.00 | 0.00 | 0.00 | 93 | 1015.9 |
| 20260904043243 | 26 | 194 | 0.0 | 1.6 | 0.00 | 0.00 | 0.00 | 93 | 1015.9 |
| 20260904042737 | 26 | 184 | 0.0 | 1.6 | 0.00 | 0.00 | 0.00 | 93 | 1015.6 |
| 20260904042234 | 26 | 153 | 1.6 | 3.2 | 0.00 | 0.00 | 0.00 | 94 | 1015.8 |
| 20260904041733 | 26 | 161 | 0.0 | 1.6 | 0.00 | 0.00 | 0.00 | 94 | 1015.7 |
| 20260904041230 | 26 | 172 | 0.0 | 1.6 | 0.00 | 0.00 | 0.00 | 94 | 1016.0 |
| 20260904040725 | 26 | 165 | 1.6 | 1.6 | 0.00 | 0.00 | 0.00 | 93 | 1016.0 |
| 20260904040221 | 26 | 165 | 1.6 | 1.6 | 0.00 | 0.00 | 0.00 | 93 | 1015.9 |
| 20260904035717 | 26 | 163 | 1.6 | 3.2 | 0.00 | 0.00 | 0.00 | 93 | 1015.9 |
| 20260904035212 | 26 | 270 | 0.0 | 3.2 | 0.00 | 0.00 | 0.00 | 94 | 1016.0 |
| 20260904034710 | 26 | 192 | 0.0 | 1.6 | 0.00 | 0.00 | 0.00 | 94 | 1016.1 |
| 20260904034207 | 26 | 147 | 0.0 | 0.0 | 0.00 | 0.00 | 0.00 | 94 | 1016.0 |
| 20260904033703 | 26 | 165 | 0.0 | 1.6 | 0.00 | 0.00 | 0.00 | 94 | 1016.2 |
| 20260904033159 | 26 | 160 | 0.0 | 1.6 | 0.00 | 0.00 | 0.00 | 93 | 1016.3 |